This is the latest recevied weather packets stored in our database for station/object VR2OT-10. If no packets are shown the sender has not sent any weather packets the latest 10 day(s).
| Time | Temp. | Humidity | Pressure | Rain* | Wind** | Luminosity | Snow |
|---|---|---|---|---|---|---|---|
| 1787570732 | 29.44° C | 76% | 1000.2 hPa | - | 3.58 m/s, 270° | - | - |
| 1787569834 | 30° C | 75% | 1000.2 hPa | - | 4.47 m/s, 270° | - | - |
| 1787568933 | 29.44° C | 74% | 1000.2 hPa | - | 3.13 m/s, 225° | - | - |
| 1787568032 | 30° C | 73% | 1000 hPa | - | 4.02 m/s, 270° | - | - |
| 1787567133 | 30° C | 74% | 999.8 hPa | - | 4.02 m/s, 270° | - | - |
| 1787565331 | 30° C | 74% | 999.5 hPa | - | 4.92 m/s, 270° | - | - |
| 1787564434 | 30° C | 72% | 999.3 hPa | - | 4.47 m/s, 270° | - | - |
| 1787563533 | 30° C | 74% | 999.4 hPa | - | 3.13 m/s, 270° | - | - |
| 1787562632 | 30° C | 74% | 999.4 hPa | - | 3.58 m/s, 270° | - | - |
| 1787561733 | 30° C | 74% | 999.4 hPa | - | 4.47 m/s, 270° | - | - |
| 1787560834 | 30° C | 74% | 999.5 hPa | - | 3.13 m/s, 270° | - | - |
| 1787559932 | 30° C | 73% | 999.5 hPa | - | 3.13 m/s, 225° | - | - |
| 1787559033 | 30.56° C | 74% | 999.4 hPa | - | 3.58 m/s, 270° | - | - |
| 1787557232 | 30.56° C | 74% | 999.6 hPa | - | 2.68 m/s, 225° | - | - |
| 1787556333 | 30.56° C | 73% | 999.7 hPa | - | 3.13 m/s, 270° | - | - |
| 1787554532 | 31.11° C | 70% | 999.8 hPa | - | 2.68 m/s, 225° | - | - |
| 1787553634 | 31.11° C | 67% | 999.8 hPa | - | 3.58 m/s, 270° | - | - |
| 1787552733 | 31.67° C | 66% | 999.9 hPa | - | 4.92 m/s, 270° | - | - |
| 1787551832 | 31.67° C | 66% | 999.9 hPa | - | 3.13 m/s, 225° | - | - |
| 1787550934 | 31.67° C | 65% | 1000 hPa | - | 3.58 m/s, 225° | - | - |
| 1787550034 | 31.67° C | 66% | 1000.1 hPa | - | 3.58 m/s, 225° | - | - |
| 1787549132 | 31.11° C | 66% | 1000.5 hPa | - | 2.68 m/s, 225° | - | - |
| 1787548233 | 31.11° C | 69% | 1000.6 hPa | - | 2.68 m/s, 270° | - | - |
| 1787546431 | 31.11° C | 73% | 1001.1 hPa | - | 3.13 m/s, 270° | - | - |
| 1787545533 | 31.11° C | 72% | 1001.3 hPa | - | 4.02 m/s, 270° | - | - |
* Rain since midnight (hover to see other rain measurements)
** Current wind speed in m/s (hover to see current wind gust speed)